星链-2198 (STARLINK-2198 )

导读

STARLINK-2198是美国SpaceX公司星链星座中的一颗卫星,于2021年3月4日搭乘猎鹰9号火箭发射入轨。星链是全球规模最大的低轨卫星互联网星座,该星属于第一代组网卫星,运行在近地轨道,配备相控阵天线与氪离子推进系统,可为全球用户提供低延迟宽带互联网接入服务,助力实现偏远地区通信覆盖、移动场景联网等应用,是星链全球通信网络建设的重要组成部分。

Basic Information
目录编号:
47775
目录名称:
STARLINK-2198
国际标识:
2021-017BF
轨道中心:
EARTH
卫星名称:
星链-2198
卫星全名:
星链-2198 (STARLINK-2198 )
卫星状态:
已陨落 最后检测时间 2025-01-20
发射日期:
2021-03-04 UTC
国别 :
美国 (US)
星等 :
--
Orbit Information
数据来源 国际轨道数据
星历时间: 2025-01-21T05:02:54+0800
轨道信息已过期513天
半长轴: 6534.572km
偏心率: 0.0005873
轨道倾角: 53.021°
近地点辐角 262.337°
升交点赤经 238.839°
平近点角 179.747°
近地点: 152.599km
远地点: 160.275km
周期: 87.616分钟
每日圈数: 16.43528
Detailed Information
固有亮度:
5
最大亮度:
2.5
卫星平台:
Starlink V1.0
覆盖范围:
全球
运营商:
太空探索技术公司
运营商所在国:
美国
制造商(研发单位):
太空探索技术公司
制造商所在国:
美国
使用方式:
暂无
Satellite Introduction
星链(Starlink)计划是由太空探索技术公司(SpaceX)提出的一个巨型低轨卫星互联网星座项目,计划在2019年至2024年间在太空搭建由约1.2万颗卫星组成的“星链”网络,其中1584颗将部署在地球上空550千米处的近地轨道,并从2020年开始工作。该卫星仍在工作。